Orbital Elements at Epoch 2459200.5 (2020-Dec-17.0) TDB
Reference: JPL 26 (heliocentric ecliptic J2000)
Element | Value | Uncertainty (1-sigma) | Units |
e | .1306879956260125 | 5.917e-08 | |
a | 3.23292917768175 | 2.5109e-08 | au |
q | 2.810424143449669 | 1.9417e-07 | au |
i | 5.29335776131765 | 5.886e-06 | deg |
node | 7.57507882130022 | 5.1638e-05 | deg |
peri | 310.8278209408394 | 5.5022e-05 | deg |
M | 166.832797195968 | 2.1723e-05 | deg |
tp | 2458216.553140801135 (2018-Apr-08.05314080) | 0.00012528 | TDB |
period | 2123.208837022078 5.81 | 2.4735e-05 6.772e-08 | d yr |
n | .169554682385799 | 1.9753e-09 | deg/d |
Q | 3.655434211913831 | 2.839e-08 | au |
|
| | Orbit Determination Parameters
Additional Information
|